Location: Molveno
(46.1500°N, 10.9667°E)
Time: 06:45:18
(UTC+00:00)

Aureole 2 Rocket - Pass Details

Date: 05 July 2020
Orbit: 304 x 429 km, 73.9° (Epoch: 05 August)

Event Time Altitude Azimuth Distance (km) Brightness Sun altitude
Rises 22:46:49 0° 336° (NNW) 2,126 7.2 -20.8°
Reaches altitude 10° 22:48:44 10° 334° (NNW) 1,303 5.8 -20.8°
Enters shadow 22:50:49 44° 319° (NW) 500 2.9 -20.8°
